[[{"header":{"parameterUnit":"m.s-1","parameterCategory":1,"la1":30.2991,"la2":30.254,"lo1":-89.0895,"lo2":-89.0444,"dy":0.0017,"dx":0.0017,"nx":28,"ny":28,"refTime":"2024-02-10T09:00:00:Z","depth":0,"parameterNumber":2,"parameterNumberName":"U-component_of_WINDS"},"data":[0,0,0,0,0,0,0,0,0,0,0,0,0,0,0,0,0,0,0,0,0,0,0,0,0,0,0,0,0,0,0,0,0,0,0,0,0,0,0,0,0,0,0,0,0,0,0,0,0,0,0,0,0,0,0,0,0,0,-1.6547,-1.6548,0,-1.6576,-1.6576,-1.6577,-1.6592,-1.6592,-1.6592,-1.6592,-1.662,-1.6621,-1.6621,0,0,0,0,0,0,0,0,0,0,0,0,0,-1.6504,-1.6505,-1.6547,-1.6548,-1.6548,-1.6576,-1.6576,-1.6577,-1.6592,-1.6592,-1.6592,-1.6592,-1.662,-1.662,-1.6621,0,0,0,0,0,0,0,0,0,0,0,0,0,-1.6527,-1.6505,-1.6547,-1.6559,-1.6561,-1.6576,-1.6576,-1.6577,-1.6592,-1.6592,-1.6592,-1.6592,-1.6619,-1.662,-1.6621,-1.6627,0,0,-1.6625,-1.6625,0,0,0,0,0,0,0,0,-1.6525,-1.6528,-1.6557,-1.6558,-1.656,-1.6581,-1.6571,-1.6593,-1.6592,-1.658,-1.6592,-1.6592,-1.6607,-1.6609,-1.6614,-1.6628,-1.6629,-1.6625,-1.6625,-1.6626,-1.6626,0,0,0,0,0,0,0,-1.6524,-1.6527,-1.6559,-1.6558,-1.6559,-1.6562,-1.6566,-1.6575,-1.6593,-1.6581,-1.6582,-1.6586,-1.6607,-1.6613,-1.6615,-1.6629,-1.6625,-1.6626,-1.6626,-1.6627,-1.6649,-1.6649,0,0,0,0,0,0,-1.6521,-1.6526,-1.6558,-1.656,-1.6543,-1.6563,-1.6567,-1.6574,-1.6593,-1.6596,-1.6586,-1.6586,-1.6611,-1.6613,-1.6616,-1.6623,-1.6626,-1.6627,-1.6627,-1.6649,-1.6649,-1.6649,0,0,0,0,0,0,-1.652,-1.6523,-1.6557,-1.6543,-1.6547,-1.6564,-1.6572,-1.6574,-1.658,-1.6596,-1.6599,-1.6588,-1.6611,-1.6614,-1.6624,-1.6624,-1.6627,-1.6628,-1.6649,-1.6649,-1.6649,-1.6637,0,0,0,0,0,0,-1.6518,-1.6523,-1.6526,-1.6543,-1.6548,-1.6565,-1.6572,-1.6575,-1.6582,-1.6583,-1.6599,-1.6602,-1.6611,-1.6622,-1.6625,-1.6625,-1.6629,-1.6649,-1.6649,-1.6649,-1.6638,-1.6637,-1.6636,0,0,0,0,0,-1.6517,-1.6521,-1.6526,-1.6529,-1.6552,-1.6565,-1.6568,-1.6579,-1.6582,-1.6584,-1.6595,-1.6601,-1.6624,-1.6623,-1.6626,-1.6627,-1.6649,-1.6649,-1.6649,-1.6638,-1.6637,-1.6636,0,0,0,0,0,0,-1.6503,-1.6523,-1.6529,-1.6539,-1.655,-1.6567,-1.6571,-1.6578,-1.6588,-1.6589,-1.6602,-1.6605,-1.6614,-1.6621,-1.662,-1.6633,-1.6637,-1.6637,-1.6628,-1.6627,-1.6626,-1.6624,-1.663,0,0,0,0,0,-1.6501,-1.651,-1.6528,-1.6535,-1.654,-1.6555,-1.6561,-1.6569,-1.658,-1.6585,-1.6596,-1.6606,-1.6616,-1.6622,-1.6631,-1.6639,-1.6642,-1.6641,-1.664,-1.6639,-1.664,-1.6644,-1.6643,-1.6648,-1.6648,-1.6648,0,0,-1.6497,-1.651,-1.6515,-1.6532,-1.6542,-1.6551,-1.6558,-1.6567,-1.6574,-1.6586,-1.6596,-1.6604,-1.6617,-1.6625,-1.663,-1.6632,-1.6639,-1.6639,-1.6638,-1.6639,-1.6643,-1.6643,-1.6643,-1.6648,-1.6648,-1.6648,0,0,-1.6495,-1.6505,-1.6512,-1.6522,-1.6536,-1.6545,-1.6547,-1.6563,-1.6569,-1.658,-1.6589,-1.6596,-1.6612,-1.6621,-1.6627,-1.6627,-1.6634,-1.663,-1.6626,-1.663,-1.6629,-1.6629,-1.6629,-1.6629,-1.663,-1.663,-1.663,0,-1.6488,-1.6502,-1.6515,-1.6523,-1.6531,-1.6542,-1.6549,-1.6557,-1.6574,-1.6578,-1.6581,-1.6601,-1.661,-1.6621,-1.6621,-1.6626,-1.6628,-1.6628,-1.6628,-1.6628,-1.6628,-1.6628,-1.6628,-1.663,-1.663,-1.663,-1.663,0,-1.6493,-1.6503,-1.6506,-1.6523,-1.653,-1.6538,-1.6551,-1.6557,-1.6564,-1.6573,-1.6583,-1.6594,-1.6606,-1.6609,-1.6616,-1.662,-1.6621,-1.6626,-1.663,-1.6627,-1.6627,-1.6627,-1.6629,-1.6629,-1.6629,-1.6629,0,0,-1.6483,-1.6506,-1.6507,-1.6514,-1.6531,-1.6538,-1.6546,-1.6558,-1.6563,-1.6573,-1.658,-1.6593,-1.6597,-1.6604,-1.6612,-1.6615,-1.6614,-1.662,-1.662,-1.6618,-1.662,-1.6616,-1.6616,-1.6619,-1.6619,-1.6619,-1.6618,0,-1.6483,-1.6498,-1.6509,-1.652,-1.6528,-1.6539,-1.6546,-1.6556,-1.6565,-1.6573,-1.6582,-1.6591,-1.6596,-1.66,-1.6604,-1.6614,-1.6615,-1.6614,-1.6624,-1.6625,-1.6621,-1.6616,-1.6612,-1.6612,-1.6619,-1.6619,-1.6619,0,-1.6485,-1.6496,-1.6507,-1.6522,-1.6526,-1.6532,-1.6544,-1.6552,-1.6563,-1.6569,-1.6577,-1.6585,-1.6593,-1.6596,-1.6607,-1.6606,-1.6611,-1.6616,-1.6617,-1.6618,-1.6621,-1.6617,-1.6612,-1.6611,-1.6619,-1.6619,-1.6619,0,-1.6476,-1.6494,-1.6503,-1.6508,-1.6526,-1.653,-1.6538,-1.6549,-1.6556,-1.6566,-1.657,-1.658,-1.6586,-1.6594,-1.6604,-1.6606,-1.6614,-1.6618,-1.6619,-1.6618,-1.662,-1.662,-1.6615,-1.6623,-1.6623,-1.6623,-1.6623,0,-1.6475,-1.6482,-1.6499,-1.6504,-1.6512,-1.6524,-1.6531,-1.6539,-1.655,-1.6556,-1.6566,-1.6572,-1.6586,-1.6593,-1.6602,-1.6609,-1.6612,-1.6616,-1.6618,-1.6615,-1.6615,-1.6619,-1.6619,-1.6623,-1.6623,-1.6623,-1.6623,0,-1.6467,-1.6479,-1.6489,-1.6505,-1.6509,-1.6514,-1.6527,-1.6533,-1.6542,-1.655,-1.6553,-1.6566,-1.6576,-1.6587,-1.66,-1.6605,-1.6612,-1.6615,-1.6608,-1.6609,-1.6609,-1.6609,-1.6606,-1.6606,-1.6614,-1.6614,-1.6614,0,-1.6465,-1.6471,-1.6487,-1.6493,-1.65,-1.6509,-1.6515,-1.6527,-1.6534,-1.6547,-1.6551,-1.6561,-1.657,-1.6584,-1.6594,-1.6604,-1.6608,-1.6606,-1.6609,-1.6606,-1.6607,-1.6607,-1.6607,-1.6605,-1.6605,-1.6605,-1.6605,0,-1.6461,-1.6467,-1.6476,-1.6487,-1.6495,-1.6504,-1.6514,-1.6518,-1.6532,-1.6538,-1.6548,-1.6555,-1.6568,-1.6577,-1.6589,-1.6596,-1.6602,-1.6604,-1.6604,-1.6601,-1.6597,-1.6599,-1.6606,-1.6604,-1.6604,-1.6604,-1.6604,-1.6604,-1.6456,-1.6461,-1.6474,-1.6483,-1.6492,-1.6501,-1.6506,-1.6516,-1.6524,-1.6536,-1.6543,-1.6552,-1.6563,-1.6579,-1.6586,-1.6593,-1.6595,-1.6596,-1.6596,-1.6596,-1.6595,-1.6596,-1.6595,-1.6595,-1.6595,-1.6595,-1.6595,0,-1.6452,-1.6461,-1.647,-1.6483,-1.6491,-1.6497,-1.6507,-1.6513,-1.6522,-1.6531,-1.654,-1.6551,-1.656,-1.6571,-1.6581,-1.6585,-1.6588,-1.6587,-1.6587,-1.6588,-1.6593,-1.6591,-1.6584,-1.6584,-1.6584,-1.6584,-1.6584,-1.6584,-1.6451,-1.646,-1.6467,-1.648,-1.6488,-1.6498,-1.6503,-1.6511,-1.6519,-1.6531,-1.6539,-1.6546,-1.6556,-1.6567,-1.6576,-1.6579,-1.6582,-1.658,-1.6583,-1.6587,-1.6588,-1.6589,-1.6588,-1.658,-1.658,-1.6579,-1.6579,-1.6579]},{"header":{"parameterUnit":"m.s-1","parameterCategory":1,"la1":30.2991,"la2":30.254,"lo1":-89.0895,"lo2":-89.0444,"dy":0.0017,"dx":0.0017,"nx":28,"ny":28,"refTime":"2024-02-10T09:00:00:Z","depth":0,"parameterNumber":3,"parameterNumberName":"V-component_of_WINDS"},"data":[0,0,0,0,0,0,0,0,0,0,0,0,0,0,0,0,0,0,0,0,0,0,0,0,0,0,0,0,0,0,0,0,0,0,0,0,0,0,0,0,0,0,0,0,0,0,0,0,0,0,0,0,0,0,0,0,0,0,3.8884,3.8886,0,3.9116,3.9118,3.9121,3.9187,3.9186,3.9185,3.9183,3.9421,3.9428,3.9435,0,0,0,0,0,0,0,0,0,0,0,0,0,3.8501,3.8508,3.8884,3.8887,3.889,3.9115,3.9118,3.9122,3.9187,3.9186,3.9184,3.9183,3.9418,3.9427,3.9436,0,0,0,0,0,0,0,0,0,0,0,0,0,3.8694,3.851,3.8883,3.895,3.8958,3.9115,3.9118,3.9122,3.9188,3.9186,3.9184,3.9182,3.9415,3.9426,3.9437,3.9545,0,0,3.9472,3.9477,0,0,0,0,0,0,0,0,3.8683,3.8708,3.8937,3.8945,3.8955,3.912,3.9071,3.9264,3.9188,3.91,3.9183,3.9181,3.9322,3.9341,3.9389,3.9556,3.9566,3.9473,3.948,3.9484,3.9488,0,0,0,0,0,0,0,3.8669,3.8698,3.8975,3.894,3.8951,3.8969,3.8994,3.9108,3.9219,3.9108,3.9113,3.914,3.9327,3.9378,3.9395,3.957,3.9472,3.9482,3.9489,3.9494,3.9842,3.9844,0,0,0,0,0,0,3.8644,3.8686,3.8968,3.8982,3.8811,3.8977,3.9005,3.9069,3.9218,3.9239,3.9141,3.9142,3.9359,3.9382,3.9403,3.9543,3.9484,3.9495,3.9501,3.9839,3.9842,3.9845,0,0,0,0,0,0,3.8636,3.8669,3.8959,3.8836,3.8874,3.8986,3.9057,3.9075,3.9126,3.9243,3.9264,3.9172,3.9359,3.9388,3.951,3.9552,3.95,3.951,3.9836,3.984,3.9844,3.9819,0,0,0,0,0,0,3.8625,3.8665,3.8706,3.8836,3.8881,3.9061,3.9059,3.9081,3.9145,3.9148,3.9278,3.9298,3.936,3.9493,3.9521,3.9566,3.9519,3.9833,3.9838,3.9842,3.9817,3.9822,3.9826,0,0,0,0,0,3.8611,3.8689,3.8708,3.8742,3.8934,3.9063,3.9088,3.9158,3.9148,3.9191,3.9267,3.9294,3.9542,3.9505,3.9538,3.9586,3.9831,3.9837,3.9842,3.9815,3.9821,3.9826,0,0,0,0,0,0,3.856,3.8707,3.873,3.8853,3.8945,3.9074,3.913,3.9161,3.9258,3.9257,3.9339,3.9368,3.9486,3.9548,3.9504,3.9701,3.9687,3.97,3.9656,3.9662,3.9667,3.965,3.9528,0,0,0,0,0,3.8563,3.8655,3.8779,3.8876,3.8921,3.9017,3.9076,3.9122,3.9221,3.926,3.9345,3.944,3.9541,3.9604,3.9703,3.9826,3.9857,3.9876,3.988,3.9883,3.9894,3.9968,3.9979,3.9863,3.9863,3.9863,0,0,3.8571,3.8663,3.8715,3.8868,3.8945,3.904,3.905,3.9148,3.922,3.9275,3.9397,3.9463,3.9575,3.97,3.9759,3.9755,3.9933,3.9891,3.9892,3.9901,3.9975,3.9986,3.9995,3.9867,3.9867,3.9866,0,0,3.8634,3.8711,3.8802,3.888,3.8996,3.9061,3.9082,3.9208,3.9254,3.9378,3.9422,3.9509,3.9678,3.9758,3.982,3.9917,3.9947,3.9947,3.9971,4.0042,4.0051,4.006,4.0098,4.011,3.9956,3.9956,3.9956,0,3.8628,3.8772,3.8845,3.8943,3.901,3.9065,3.916,3.9231,3.9374,3.942,3.9413,3.9631,3.9709,3.9856,3.988,3.9927,3.9957,3.9933,4.0044,4.0053,4.0062,4.01,4.0113,3.9956,3.9956,3.9956,3.9956,0,3.8762,3.8861,3.8921,3.9059,3.9133,3.9228,3.9317,3.9383,3.9423,3.9489,3.9616,3.9713,3.9834,3.9872,3.9911,4.0025,4.002,4.0027,4.0016,4.0072,4.0108,4.0123,3.9955,3.9955,3.9955,3.9955,0,0,3.8799,3.8978,3.8999,3.9064,3.9198,3.9277,3.9376,3.9495,3.9552,3.9649,3.9736,3.988,3.989,3.9961,4.001,4.0072,4.0147,4.0074,4.0078,4.0087,4.0283,4.0278,4.0293,4.0167,4.017,4.0172,4.0275,0,3.8881,3.906,3.913,3.9277,3.9372,3.9427,3.9514,3.9607,3.9671,3.9762,3.9833,3.9935,3.9938,3.9982,4.0046,4.0124,4.0188,4.0118,4.0251,4.0255,4.0224,4.0312,4.0306,4.0398,4.0289,4.0292,4.0293,0,3.9,3.9101,3.9257,3.9384,3.9426,3.9503,3.962,3.9705,3.9813,3.9855,3.9936,3.9982,4.0091,4.0072,4.0224,4.0174,4.0233,4.028,4.0286,4.0303,4.0279,4.0334,4.0429,4.0444,4.0316,4.0314,4.0312,0,3.9016,3.9189,3.9307,3.936,3.951,3.9563,3.9628,3.9734,3.9802,3.9904,3.995,4.0063,4.0125,4.0212,4.0289,4.0267,4.0435,4.0421,4.0476,4.0475,4.051,4.0508,4.0619,4.0544,4.0543,4.0543,4.0543,0,3.9102,3.9196,3.9316,3.9389,3.9497,3.9577,3.9683,3.9751,3.9846,3.9934,3.9987,4.0069,4.0164,4.0258,4.0319,4.0438,4.0465,4.0504,4.0519,4.0501,4.0496,4.0542,4.0539,4.0547,4.0546,4.0545,4.0545,0,3.9137,3.9221,3.9354,3.9485,3.9521,3.9595,3.9709,3.9782,3.985,3.9961,3.9992,4.0098,4.0213,4.0297,4.0444,4.0485,4.0614,4.0628,4.0578,4.0586,4.0637,4.0633,4.0784,4.081,4.0714,4.0715,4.0715,0,3.9188,3.9262,3.9403,3.9466,3.9531,3.9631,3.9702,3.9785,3.9856,3.9987,4.0045,4.0164,4.0263,4.0444,4.0535,4.0649,4.0668,4.0714,4.0686,4.0666,4.0673,4.0669,4.0679,4.0718,4.0719,4.0719,4.0719,0,3.927,3.9309,3.9408,3.9524,3.9608,3.9702,3.9798,3.9847,3.9947,4.0025,4.0143,4.022,4.0373,4.0491,4.0615,4.0683,4.0719,4.0727,4.0747,4.073,4.0699,4.072,4.0592,4.0724,4.0724,4.0723,4.0723,4.0723,3.9318,3.9388,3.9499,3.9609,3.969,3.9779,3.9856,3.9934,4.0034,4.0165,4.0208,4.0331,4.044,4.0611,4.0681,4.0779,4.0779,4.0806,4.0813,4.0819,4.082,4.0681,4.0802,4.0802,4.0802,4.0802,4.0802,0,3.9405,3.948,3.9581,3.9714,3.9802,3.9828,3.9936,4.0009,4.0117,4.0215,4.0313,4.0451,4.0566,4.0667,4.0788,4.0848,4.0868,4.0877,4.0875,4.0891,4.0812,4.0785,4.0859,4.0859,4.0859,4.0859,4.0859,4.0859,3.9461,3.9583,3.9635,3.9799,3.9873,3.9995,4.0055,4.0139,4.0219,4.037,4.0467,4.0532,4.0633,4.0762,4.0871,4.0898,4.0941,4.0947,4.0978,4.0903,4.0896,4.0889,4.0865,4.0955,4.0955,4.105,4.105,4.1051]}]]